This demonstration page uses our WeatherBlox Daily Observations layout. Learn more.

Left ArrowRight Arrow

39.01783, -85.05884

Hourly Observations for March 31, 2015

Temp ( °F °C ) Dew Point ( °F °C ) Humidity (%) Winds ( mph kmh ) Pressure ( in mb ) Visibility ( mi km ) Precip ( " mm )
12:52 am 00:52 Cloudy 46 7.8 29 -1.7 51 51 S 7 11 30.01 1016 10 16 0.00 0.00
1:52 am 01:52 Partly Cloudy 47 8.3 29 -1.7 50 50 SSW 8 13 29.98 1015 10 16 0.00 0.00
2:52 am 02:52 Mostly Clear 46 7.8 29 -1.7 51 51 S 8 13 29.96 1014 10 16 0.00 0.00
3:52 am 03:52 Clear 46 7.8 29 -1.7 51 51 SSW 9 15 29.91 1013 10 16 0.00 0.00
4:52 am 04:52 Mostly Clear 44 6.7 29 -1.7 55 55 S 7 11 29.88 1012 10 16 0.00 0.00
5:52 am 05:52 Partly Cloudy 47 8.3 29 -1.7 50 50 SSW 10 17 29.85 1011 10 16 0.00 0.00
6:52 am 06:52 Mostly Cloudy 49 9.4 29 -1.7 46 46 SSW 14 22 29.83 1010 10 16 0.00 0.00
7:52 am 07:52 Mostly Cloudy 50 10 30 -1.1 46 46 SSW 13 20 29.83 1010 10 16 0.00 0.00
8:52 am 08:52 Mostly Sunny 52 11.1 32 0 47 47 SW 14 22 29.81 1009 10 16 0.00 0.00
9:52 am 09:52 Sunny 57 13.9 35 1.7 44 44 WSW 15 24 29.80 1009 10 16 0.00 0.00
10:52 am 10:52 Sunny 61 16.1 37 2.8 41 41 W 16 26 29.80 1009 10 16 0.00 0.00
11:52 am 11:52 Sunny 64 17.8 38 3.3 38 38 W 15 24 29.79 1009 10 16 0.00 0.00
12:52 pm 12:52 Sunny 67 19.4 38 3.3 35 35 W 23 37 29.79 1009 10 16 0.00 0.00
1:52 pm 13:52 Mostly Sunny 68 20 35 1.7 30 30 NW 25 41 29.80 1009 10 16 0.00 0.00
2:52 pm 14:52 Mostly Sunny 68 20 31 -0.6 25 25 WNW 24 39 29.81 1009 10 16 0.00 0.00
3:52 pm 15:52 Mostly Sunny 67 19.4 34 1.1 30 30 WNW 23 37 29.82 1010 10 16 0.00 0.00
4:52 pm 16:52 Mostly Sunny 65 18.3 33 0.6 31 31 NW 24 39 29.85 1011 10 16 0.00 0.00
5:52 pm 17:52 Mostly Sunny 63 17.2 32 0 31 31 NNW 20 31 29.86 1011 10 16 0.00 0.00
6:52 pm 18:52 Partly Cloudy 60 15.6 32 0 35 35 NW 21 33 29.89 1012 10 16 0.00 0.00
7:52 pm 19:52 Partly Cloudy 56 13.3 35 1.7 46 46 N 13 20 29.91 1013 10 16 0.00 0.00
8:52 pm 20:52 Clear 53 11.7 35 1.7 51 51 NNW 13 20 29.95 1014 10 16 0.00 0.00
9:52 pm 21:52 Clear 49 9.4 37 2.8 64 64 NNE 12 19 29.98 1015 10 16 0.00 0.00
10:52 pm 22:52 Clear 46 7.8 36 2.2 68 68 NNE 6 9 30.00 1016 10 16 0.00 0.00
11:52 pm 23:52 Clear 45 7.2 36 2.2 71 71 NNE 7 11 30.01 1016 10 16 0.00 0.00

Powered by AerisWeather